Kristianstad, Sweden

9:57 AM CEST on May 28, 2017 (GMT +0200)
Kristianstad

Weather History for ESMK - October, 2013

Change the Weather History Date:

Sunday, October 27, 2013

  Actual Average Record
Temperature  
Mean Temperature 58 °F -  
Max Temperature 62 °F - - ()
Min Temperature 53 °F - - ()
Degree Days  
Heating Degree Days 8    
Growing Degree Days 8 (Base 50)    
Moisture  
Dew Point 54 °F    
Average Humidity 87    
Maximum Humidity 94    
Minimum Humidity 72    
Precipitation  
Precipitation 0.00 in - - ()
Sea Level Pressure  
Sea Level Pressure 29.49 in    
Wind  
Wind Speed 10 mph ()    
Max Wind Speed 17 mph    
Max Gust Speed 30 mph    
Visibility 6.1 miles    
Events Rain    
T = Trace of Precipitation, MM = Missing Value Source: Averaged Metar Reports

Daily Weather History Graph

Daily Weather History Graph

Search for Another Location

Airport or City:

Trip Planner

Search our weather history database for the weather conditions in past years. The results will help you decide how hot, cold, wet, or windy it might be!

Date:

Astronomy

Oct. 27, 2013 Rise Set
Actual Time 6:59 AM CET 4:34 PM CET
Civil Twilight 6:20 AM CET 5:13 PM CET
Nautical Twilight 5:37 AM CET 5:56 PM CET
Astronomical Twilight 4:54 AM CET 6:39 PM CET
Moon 11:33 PM CET (10/27) 1:41 PM CET (10/27)
Length of Visible Light 10h 52m
Length of Day
9h 34m
Last Quarter, 45% of the Moon is Illuminated
Oct 27
Last Quarter
Nov 3
New
Nov 10
First Quarter
Nov 17
Full
Nov 25
Last Quarter

Hourly Weather History & Observations

Time (CET) Temp. Dew Point Humidity Pressure Visibility Wind Dir Wind Speed Gust Speed Precip Events Conditions
12:20 AM 57.2 °F 55.4 °F 94% 29.68 in 6.2 mi SW 11.5 mph - N/A   Overcast
12:50 AM 59.0 °F 53.6 °F 82% 29.68 in 6.2 mi SW 12.7 mph - N/A   Mostly Cloudy
1:20 AM 59.0 °F 53.6 °F 82% 29.65 in 6.2 mi SSW 9.2 mph - N/A   Overcast
1:50 AM 57.2 °F 53.6 °F 88% 29.65 in 6.2 mi SSW 9.2 mph - N/A   Mostly Cloudy
2:20 AM 59.0 °F 53.6 °F 82% 29.65 in 6.2 mi SW 9.2 mph - N/A   Mostly Cloudy
2:50 AM 57.2 °F 53.6 °F 88% 29.65 in 6.2 mi SW 9.2 mph - N/A   Overcast
2:20 AM 59.0 °F 53.6 °F 82% 29.65 in 6.2 mi SW 10.4 mph - N/A   Overcast
2:50 AM 59.0 °F 53.6 °F 82% 29.65 in 6.2 mi SW 9.2 mph - N/A   Overcast
3:20 AM 57.2 °F 53.6 °F 88% 29.62 in 6.2 mi SSW 8.1 mph - N/A   Overcast
3:50 AM 57.2 °F 53.6 °F 88% 29.62 in 6.2 mi SSW 10.4 mph - N/A   Mostly Cloudy
4:20 AM 57.2 °F 53.6 °F 88% 29.62 in 6.2 mi SSW 10.4 mph - N/A   Mostly Cloudy
4:50 AM 57.2 °F 53.6 °F 88% 29.62 in 6.2 mi SSW 9.2 mph - N/A   Overcast
5:20 AM 57.2 °F 53.6 °F 88% 29.62 in 6.2 mi SSW 9.2 mph - N/A   Overcast
5:50 AM 57.2 °F 53.6 °F 88% 29.59 in 6.2 mi SSW 9.2 mph - N/A   Overcast
6:20 AM 55.4 °F 53.6 °F 94% 29.59 in 6.2 mi South 9.2 mph - N/A   Mostly Cloudy
6:50 AM 55.4 °F 53.6 °F 94% 29.59 in 6.2 mi SSW 10.4 mph - N/A   Mostly Cloudy
7:20 AM 55.4 °F 53.6 °F 94% 29.59 in 6.2 mi SSW 9.2 mph - N/A   Unknown
7:50 AM 55.4 °F 53.6 °F 94% 29.59 in 6.2 mi South 8.1 mph - N/A   Partly Cloudy
8:20 AM 55.4 °F 53.6 °F 94% 29.56 in 6.2 mi South 8.1 mph - N/A   Mostly Cloudy
8:50 AM 57.2 °F 53.6 °F 88% 29.56 in 6.2 mi South 8.1 mph - N/A   Mostly Cloudy
9:20 AM 57.2 °F 55.4 °F 94% 29.53 in 6.2 mi SSE 9.2 mph - N/A   Mostly Cloudy
9:50 AM 59.0 °F 55.4 °F 88% 29.53 in 6.2 mi South 11.5 mph - N/A   Mostly Cloudy
10:20 AM 59.0 °F 55.4 °F 88% 29.53 in 6.2 mi South 12.7 mph - N/A   Mostly Cloudy
10:50 AM 59.0 °F 57.2 °F 94% 29.50 in 6.2 mi South 12.7 mph - N/A   Mostly Cloudy
11:20 AM 59.0 °F 57.2 °F 94% 29.50 in 6.2 mi South 11.5 mph - N/A   Mostly Cloudy
11:50 AM 60.8 °F 57.2 °F 88% 29.47 in 6.2 mi SSW 11.5 mph - N/A   Overcast
12:20 PM 60.8 °F 57.2 °F 88% 29.47 in 6.2 mi SSW 13.8 mph - N/A   Mostly Cloudy
12:50 PM 62.6 °F 55.4 °F 77% 29.44 in 6.2 mi SSW 12.7 mph - N/A   Scattered Clouds
1:20 PM 62.6 °F 55.4 °F 77% 29.44 in 6.2 mi SSW 11.5 mph - N/A   Partly Cloudy
1:50 PM 62.6 °F 55.4 °F 77% 29.42 in 6.2 mi South 13.8 mph - N/A   Partly Cloudy
2:20 PM 62.6 °F 55.4 °F 77% 29.42 in 6.2 mi South 15.0 mph - N/A   Scattered Clouds
2:50 PM 62.6 °F 53.6 °F 72% 29.39 in 6.2 mi SSW 12.7 mph - N/A   Scattered Clouds
3:20 PM 60.8 °F 53.6 °F 77% 29.39 in 6.2 mi SSW 12.7 mph - N/A   Partly Cloudy
3:50 PM 59.0 °F 55.4 °F 88% 29.39 in 3.1 mi South 17.3 mph 29.9 mph N/A   Drizzle
4:20 PM 57.2 °F 55.4 °F 94% 29.36 in 6.2 mi SSW 17.3 mph - N/A Rain Light Rain
4:50 PM 57.2 °F 53.6 °F 88% 29.36 in 6.2 mi SSW 13.8 mph - N/A Rain Rain Showers
5:20 PM 57.2 °F 53.6 °F 88% 29.33 in 6.2 mi SSW 12.7 mph - N/A   Mostly Cloudy
5:50 PM 55.4 °F 53.6 °F 94% 29.33 in 6.2 mi SSW 13.8 mph - N/A   Scattered Clouds
6:20 PM 57.2 °F 51.8 °F 82% 29.33 in 6.2 mi SW 15.0 mph - N/A   Mostly Cloudy
6:50 PM 55.4 °F 51.8 °F 88% 29.33 in 6.2 mi SW 15.0 mph 26.5 mph N/A Rain Rain Showers
7:20 PM 55.4 °F 51.8 °F 88% 29.33 in 3.7 mi SW 17.3 mph 28.8 mph N/A Rain Rain
7:50 PM 53.6 °F 50.0 °F 88% 29.33 in 6.2 mi WSW 17.3 mph - N/A   Scattered Clouds
8:20 PM 53.6 °F 50.0 °F 88% 29.33 in 6.2 mi WSW 16.1 mph 29.9 mph N/A   Mostly Cloudy
8:50 PM 53.6 °F 50.0 °F 88% 29.36 in 6.2 mi WSW 13.8 mph - N/A   Scattered Clouds
9:20 PM 53.6 °F 50.0 °F 88% 29.36 in 6.2 mi WSW 11.5 mph - N/A   Mostly Cloudy
9:50 PM 53.6 °F 50.0 °F 88% 29.36 in 6.2 mi WSW 10.4 mph - N/A   Overcast
10:20 PM 53.6 °F 48.2 °F 82% 29.36 in 6.2 mi SW 13.8 mph 25.3 mph N/A   Mostly Cloudy
10:50 PM 53.6 °F 50.0 °F 88% 29.36 in 6.2 mi SW 12.7 mph - N/A   Scattered Clouds